[[{"header":{"parameterUnit":"m.s-1","parameterCategory":1,"la1":30.2991,"la2":30.254,"lo1":-89.0895,"lo2":-89.0444,"dy":0.0017,"dx":0.0017,"nx":28,"ny":28,"refTime":"2024-08-27T09:00:00:Z","depth":0,"parameterNumber":2,"parameterNumberName":"U-component_of_WINDS"},"data":[0,0,0,0,0,0,0,0,0,0,0,0,0,0,0,0,0,0,0,0,0,0,0,0,0,0,0,0,0,0,0,0,0,0,0,0,0,0,0,0,0,0,0,0,0,0,0,0,0,0,0,0,0,0,0,0,0,0,-4.015,-4.015,0,-4.0149,-4.0149,-4.0149,-4.0128,-4.0128,-4.0127,-4.0127,-4.0124,-4.0125,-4.0125,0,0,0,0,0,0,0,0,0,0,0,0,0,-4.0132,-4.0133,-4.015,-4.015,-4.015,-4.0149,-4.0149,-4.0149,-4.0128,-4.0128,-4.0127,-4.0127,-4.0124,-4.0125,-4.0125,0,0,0,0,0,0,0,0,0,0,0,0,0,-4.0137,-4.0133,-4.015,-4.0139,-4.0138,-4.0149,-4.0149,-4.0149,-4.0129,-4.0128,-4.0127,-4.0126,-4.0124,-4.0125,-4.0125,-4.0145,0,0,-4.0127,-4.0127,0,0,0,0,0,0,0,0,-4.0136,-4.0137,-4.0141,-4.014,-4.0139,-4.0138,-4.0142,-4.0148,-4.0129,-4.0132,-4.0127,-4.0126,-4.0129,-4.0129,-4.0131,-4.0145,-4.0145,-4.0127,-4.0128,-4.0128,-4.0128,0,0,0,0,0,0,0,-4.0136,-4.0137,-4.0149,-4.0141,-4.014,-4.0135,-4.0134,-4.0143,-4.0135,-4.0132,-4.013,-4.0131,-4.0129,-4.013,-4.0131,-4.0145,-4.0127,-4.0128,-4.0128,-4.0128,-4.0176,-4.0176,0,0,0,0,0,0,-4.0137,-4.0137,-4.0149,-4.0149,-4.0136,-4.0136,-4.0135,-4.0139,-4.0135,-4.0134,-4.0131,-4.013,-4.013,-4.013,-4.0131,-4.0153,-4.0128,-4.0128,-4.0129,-4.0175,-4.0176,-4.0177,0,0,0,0,0,0,-4.0137,-4.0139,-4.0149,-4.0143,-4.0144,-4.0137,-4.0141,-4.0139,-4.0141,-4.0135,-4.0133,-4.0135,-4.0129,-4.013,-4.0142,-4.0153,-4.0129,-4.0129,-4.0174,-4.0175,-4.0176,-4.0199,0,0,0,0,0,0,-4.0137,-4.0139,-4.0146,-4.0143,-4.0144,-4.0161,-4.0142,-4.014,-4.0143,-4.014,-4.0137,-4.0136,-4.0129,-4.0141,-4.0143,-4.0153,-4.013,-4.0173,-4.0174,-4.0176,-4.0197,-4.0201,-4.0204,0,0,0,0,0,-4.0136,-4.0152,-4.0146,-4.0148,-4.0153,-4.0161,-4.0162,-4.0153,-4.0144,-4.0151,-4.0147,-4.0136,-4.0152,-4.0142,-4.0144,-4.0155,-4.0172,-4.0174,-4.0176,-4.0195,-4.02,-4.0204,0,0,0,0,0,0,-4.0155,-4.0151,-4.0145,-4.016,-4.0162,-4.0158,-4.0166,-4.0159,-4.0162,-4.0159,-4.0149,-4.0148,-4.0162,-4.016,-4.0149,-4.0175,-4.016,-4.0162,-4.0175,-4.0179,-4.0182,-4.0181,-4.013,0,0,0,0,0,-4.0161,-4.0168,-4.0165,-4.0178,-4.018,-4.0173,-4.0176,-4.017,-4.017,-4.017,-4.0167,-4.0168,-4.0173,-4.0176,-4.018,-4.0198,-4.0196,-4.0206,-4.021,-4.0213,-4.0214,-4.0223,-4.0227,-4.0183,-4.0183,-4.0183,0,0,-4.0173,-4.0172,-4.0177,-4.0182,-4.0182,-4.019,-4.0173,-4.0182,-4.0187,-4.0171,-4.0182,-4.0181,-4.018,-4.0195,-4.0202,-4.0194,-4.0227,-4.0215,-4.0218,-4.0217,-4.0225,-4.023,-4.0233,-4.0184,-4.0184,-4.0184,0,0,-4.0199,-4.0199,-4.0211,-4.0212,-4.0213,-4.0209,-4.0212,-4.021,-4.0208,-4.022,-4.0209,-4.0215,-4.0224,-4.0224,-4.0226,-4.0255,-4.0244,-4.0257,-4.0273,-4.0282,-4.0286,-4.0289,-4.0298,-4.0302,-4.0258,-4.0258,-4.0259,0,-4.0213,-4.0224,-4.0218,-4.0227,-4.023,-4.0218,-4.023,-4.0231,-4.0233,-4.0235,-4.0227,-4.0239,-4.0238,-4.0252,-4.026,-4.0262,-4.0264,-4.0255,-4.0286,-4.0289,-4.0292,-4.03,-4.0304,-4.026,-4.026,-4.026,-4.0259,0,-4.0242,-4.025,-4.026,-4.0263,-4.0267,-4.0277,-4.0272,-4.0277,-4.0272,-4.0269,-4.0281,-4.028,-4.0284,-4.0287,-4.0282,-4.0302,-4.0297,-4.0288,-4.0273,-4.0297,-4.0305,-4.0308,-4.0262,-4.0261,-4.0261,-4.0261,0,0,-4.0276,-4.0278,-4.0281,-4.0283,-4.0284,-4.029,-4.0301,-4.0306,-4.031,-4.0313,-4.0321,-4.033,-4.0322,-4.0324,-4.0318,-4.0326,-4.0348,-4.0316,-4.0316,-4.0321,-4.037,-4.0375,-4.0379,-4.0343,-4.0344,-4.0344,-4.0369,0,-4.03,-4.0318,-4.0313,-4.0331,-4.0338,-4.0329,-4.0338,-4.034,-4.0338,-4.0344,-4.0342,-4.0348,-4.0338,-4.0339,-4.0347,-4.0344,-4.0358,-4.0343,-4.0349,-4.0349,-4.0347,-4.0383,-4.0389,-4.0412,-4.0372,-4.0373,-4.0373,0,-4.0329,-4.0334,-4.0353,-4.0354,-4.0357,-4.0366,-4.037,-4.0377,-4.0379,-4.0377,-4.038,-4.0374,-4.0384,-4.0371,-4.0385,-4.0375,-4.0378,-4.0377,-4.0378,-4.0376,-4.0361,-4.0381,-4.0419,-4.0422,-4.0378,-4.0378,-4.0378,0,-4.0351,-4.0363,-4.0375,-4.0377,-4.0379,-4.0386,-4.0387,-4.0388,-4.0392,-4.0397,-4.0399,-4.0404,-4.0407,-4.0411,-4.0406,-4.0398,-4.0421,-4.0407,-4.0419,-4.0419,-4.0422,-4.0421,-4.0459,-4.0427,-4.0427,-4.0427,-4.0427,0,-4.0377,-4.0388,-4.0385,-4.0393,-4.0406,-4.0401,-4.0414,-4.0414,-4.0416,-4.0423,-4.0416,-4.0423,-4.0417,-4.0423,-4.042,-4.0431,-4.0433,-4.0431,-4.043,-4.0431,-4.0431,-4.0431,-4.0428,-4.0428,-4.0428,-4.0428,-4.0427,0,-4.0402,-4.04,-4.0414,-4.0416,-4.0416,-4.0426,-4.0427,-4.0434,-4.0433,-4.0442,-4.0444,-4.0442,-4.045,-4.0446,-4.0453,-4.0451,-4.0466,-4.0463,-4.0465,-4.0463,-4.0474,-4.0473,-4.0512,-4.0517,-4.0483,-4.0484,-4.0484,0,-4.0417,-4.0426,-4.043,-4.0434,-4.0436,-4.0444,-4.0449,-4.0445,-4.045,-4.0454,-4.0461,-4.0468,-4.0473,-4.0485,-4.0484,-4.049,-4.0486,-4.05,-4.0487,-4.0488,-4.0485,-4.0483,-4.0484,-4.0501,-4.0502,-4.0502,-4.0502,0,-4.0445,-4.0444,-4.0451,-4.0458,-4.0464,-4.0469,-4.0473,-4.0477,-4.0474,-4.048,-4.0488,-4.0492,-4.0501,-4.0508,-4.0513,-4.0514,-4.0507,-4.0507,-4.051,-4.0509,-4.051,-4.0508,-4.047,-4.0505,-4.0505,-4.0505,-4.0505,-4.0505,-4.0464,-4.0472,-4.0476,-4.0484,-4.0487,-4.0492,-4.0499,-4.05,-4.0507,-4.0514,-4.0512,-4.0521,-4.0524,-4.0531,-4.0533,-4.054,-4.0534,-4.0538,-4.0539,-4.0539,-4.054,-4.0511,-4.0541,-4.0541,-4.0541,-4.0541,-4.0541,0,-4.049,-4.0493,-4.0501,-4.0508,-4.0514,-4.051,-4.0515,-4.052,-4.0529,-4.0533,-4.0539,-4.0548,-4.0555,-4.0556,-4.0562,-4.0568,-4.0565,-4.057,-4.0568,-4.0568,-4.0545,-4.0542,-4.0572,-4.0572,-4.0572,-4.0572,-4.0572,-4.0572,-4.0504,-4.0517,-4.0517,-4.0531,-4.0534,-4.0543,-4.0547,-4.0551,-4.0554,-4.0566,-4.0572,-4.0573,-4.0575,-4.0582,-4.0589,-4.0589,-4.0591,-4.0596,-4.0595,-4.0573,-4.057,-4.0567,-4.0563,-4.0597,-4.0597,-4.0617,-4.0617,-4.0617]},{"header":{"parameterUnit":"m.s-1","parameterCategory":1,"la1":30.2991,"la2":30.254,"lo1":-89.0895,"lo2":-89.0444,"dy":0.0017,"dx":0.0017,"nx":28,"ny":28,"refTime":"2024-08-27T09:00:00:Z","depth":0,"parameterNumber":3,"parameterNumberName":"V-component_of_WINDS"},"data":[0,0,0,0,0,0,0,0,0,0,0,0,0,0,0,0,0,0,0,0,0,0,0,0,0,0,0,0,0,0,0,0,0,0,0,0,0,0,0,0,0,0,0,0,0,0,0,0,0,0,0,0,0,0,0,0,0,0,4.2707,4.2708,0,4.2743,4.2744,4.2744,4.274,4.2739,4.2738,4.2738,4.2771,4.2773,4.2774,0,0,0,0,0,0,0,0,0,0,0,0,0,4.2632,4.2634,4.2707,4.2708,4.2708,4.2743,4.2744,4.2744,4.274,4.2739,4.2738,4.2738,4.2771,4.2773,4.2774,0,0,0,0,0,0,0,0,0,0,0,0,0,4.2666,4.2634,4.2707,4.271,4.2711,4.2743,4.2744,4.2744,4.274,4.2739,4.2738,4.2737,4.277,4.2773,4.2775,4.2805,0,0,4.2781,4.2782,0,0,0,0,0,0,0,0,4.2664,4.2669,4.2709,4.271,4.2711,4.2736,4.273,4.2765,4.274,4.2729,4.2738,4.2737,4.276,4.2763,4.2772,4.2807,4.2808,4.2781,4.2783,4.2784,4.2784,0,0,0,0,0,0,0,4.2662,4.2667,4.2721,4.271,4.2711,4.2709,4.2713,4.2736,4.2749,4.273,4.2729,4.2734,4.276,4.277,4.2772,4.2809,4.2781,4.2783,4.2785,4.2785,4.2872,4.2873,0,0,0,0,0,0,4.2659,4.2665,4.272,4.2722,4.2685,4.2711,4.2715,4.2729,4.2749,4.2751,4.2735,4.2734,4.2766,4.277,4.2774,4.2812,4.2784,4.2786,4.2787,4.2871,4.2873,4.2874,0,0,0,0,0,0,4.2658,4.2664,4.2719,4.2694,4.2701,4.2713,4.2728,4.273,4.2739,4.2752,4.2754,4.2742,4.2766,4.2771,4.2798,4.2813,4.2787,4.2789,4.287,4.2872,4.2873,4.2888,0,0,0,0,0,0,4.2655,4.2664,4.2676,4.2694,4.2702,4.2743,4.2729,4.2731,4.2743,4.2742,4.276,4.2762,4.2766,4.2795,4.28,4.2815,4.279,4.2869,4.2871,4.2873,4.2886,4.289,4.2893,0,0,0,0,0,4.2653,4.2677,4.2676,4.2683,4.2718,4.2744,4.2748,4.2753,4.2745,4.2757,4.2765,4.2761,4.281,4.2798,4.2804,4.282,4.2868,4.287,4.2872,4.2884,4.2889,4.2893,0,0,0,0,0,0,4.2658,4.268,4.2679,4.271,4.2726,4.2743,4.2758,4.2758,4.2775,4.2773,4.2777,4.2781,4.2809,4.2817,4.2803,4.2851,4.2838,4.2841,4.2845,4.2849,4.2853,4.285,4.2792,0,0,0,0,0,4.2663,4.2684,4.2701,4.2727,4.2735,4.2746,4.2757,4.276,4.2775,4.2782,4.2792,4.2807,4.2826,4.2838,4.2856,4.2887,4.2891,4.2901,4.2905,4.2907,4.291,4.2929,4.2934,4.2881,4.2881,4.2881,0,0,4.2673,4.2688,4.27,4.2729,4.2741,4.2762,4.2751,4.2773,4.2788,4.2784,4.2812,4.282,4.2837,4.2867,4.288,4.2874,4.2926,4.291,4.2912,4.2914,4.2932,4.2937,4.2941,4.2883,4.2882,4.2882,0,0,4.2703,4.2716,4.2739,4.2753,4.2772,4.2779,4.2785,4.2803,4.2809,4.2837,4.2835,4.2853,4.2885,4.2898,4.2908,4.2945,4.2942,4.295,4.2968,4.2985,4.299,4.2993,4.3007,4.3012,4.2953,4.2953,4.2953,0,4.2713,4.2745,4.2751,4.2775,4.2787,4.2787,4.2811,4.2823,4.2847,4.2855,4.2848,4.289,4.2901,4.2934,4.2944,4.2952,4.2959,4.2948,4.2989,4.2992,4.2996,4.3009,4.3014,4.2954,4.2954,4.2954,4.2954,0,4.2757,4.2779,4.2796,4.2821,4.2836,4.2859,4.2869,4.2883,4.2885,4.2893,4.2921,4.2935,4.2956,4.2964,4.2965,4.2998,4.2994,4.2988,4.2975,4.3002,4.3014,4.3019,4.2956,4.2955,4.2955,4.2955,0,0,4.2789,4.282,4.2826,4.2838,4.286,4.2877,4.2901,4.2923,4.2936,4.2952,4.2972,4.3,4.2995,4.3007,4.301,4.3026,4.3055,4.3018,4.3018,4.3025,4.3093,4.3098,4.3104,4.3053,4.3054,4.3055,4.3092,0,4.2822,4.2865,4.2872,4.291,4.2931,4.2932,4.2953,4.2968,4.2977,4.2995,4.3004,4.3024,4.3016,4.3023,4.3039,4.3048,4.3069,4.3046,4.3072,4.3073,4.3068,4.311,4.3115,4.315,4.3097,4.3098,4.3098,0,4.2865,4.2885,4.2925,4.2947,4.2956,4.2974,4.2996,4.3014,4.3032,4.3037,4.3052,4.3053,4.3077,4.3064,4.3097,4.3081,4.3093,4.3099,4.31,4.3103,4.3087,4.3115,4.3161,4.3166,4.3106,4.3105,4.3105,0,4.2886,4.2923,4.2952,4.2963,4.2988,4.3001,4.3012,4.3029,4.3043,4.3061,4.3071,4.3091,4.3103,4.3119,4.3126,4.3115,4.316,4.3146,4.3164,4.3164,4.3174,4.3173,4.3222,4.318,4.318,4.318,4.318,0,4.2922,4.2947,4.2963,4.2981,4.3009,4.3017,4.3044,4.3054,4.307,4.309,4.3091,4.3109,4.3117,4.3137,4.3142,4.317,4.3175,4.3179,4.318,4.318,4.3179,4.3187,4.3185,4.3181,4.3181,4.3181,4.318,0,4.295,4.2962,4.2994,4.3016,4.3022,4.3042,4.306,4.3078,4.3086,4.3112,4.3118,4.3131,4.3155,4.3163,4.3191,4.3195,4.3227,4.3226,4.3222,4.3222,4.324,4.3239,4.3297,4.3305,4.3257,4.3257,4.3258,0,4.2972,4.2992,4.3017,4.3031,4.3043,4.3065,4.308,4.3089,4.3104,4.3127,4.3141,4.3165,4.3184,4.3221,4.3233,4.3254,4.3254,4.3273,4.3257,4.3256,4.3256,4.3255,4.3257,4.3276,4.3277,4.3277,4.3277,0,4.3011,4.3016,4.3038,4.3062,4.308,4.3099,4.3118,4.3129,4.3141,4.3157,4.3182,4.3197,4.3227,4.325,4.3273,4.3283,4.3282,4.3282,4.3288,4.3287,4.3285,4.3287,4.323,4.3281,4.3281,4.328,4.328,4.328,4.3037,4.3056,4.3077,4.3101,4.3116,4.3134,4.3152,4.3164,4.3185,4.3211,4.3215,4.3242,4.326,4.329,4.3302,4.3322,4.3317,4.3325,4.3327,4.3329,4.3331,4.3281,4.3326,4.3326,4.3326,4.3326,4.3326,0,4.3077,4.3091,4.3114,4.3141,4.316,4.3159,4.318,4.3196,4.322,4.3238,4.3258,4.3287,4.331,4.3324,4.3347,4.3361,4.3362,4.3367,4.3366,4.3369,4.3334,4.3327,4.3367,4.3367,4.3367,4.3367,4.3367,4.3367,4.31,4.3131,4.3139,4.3178,4.3192,4.3219,4.3231,4.3248,4.3262,4.3295,4.3315,4.3325,4.3341,4.3366,4.3387,4.3391,4.3399,4.3406,4.3409,4.3376,4.3371,4.3367,4.3361,4.3407,4.3407,4.3443,4.3443,4.3443]}]]